Flag for Turkey Weather past 2 weeks in Ankara, Turkey

Now
30 °F

Passing clouds.


Feels Like: 25 °F
Forecast: 32 / 66 °F
Wind: 5 mph from South

Location: Ankara / Esenboga

Current Time: Mar 6, 2015 at 2:48:57 AM

Latest Report: Mar 6, 2015 at 1:50 AM


Visibility: N/A

Pressure: 30.21 "Hg

Humidity: 75%

Dew point: 23 °F

Location of AnkaraLocation

Historic Weather in Ankara — Graph

°F

Ankara temperature yesterday

Maximum temperature yesterday: 48 °F (at 1:50 PM)
Minimum temperature yesterday: 18 °F (at 6:20 AM)
Average temperature yesterday: 33 °F

Past Weeks' High & Low Weather Summary

 TemperatureHumidityPressure
High57 °F (Feb 27, 2:50 PM)100% (Feb 19, 5:20 AM)30.30 "Hg (Feb 19, 5:20 AM)
Low12 °F (Feb 21, 5:50 AM)17% (Mar 5, 1:20 PM)29.80 "Hg (Feb 19, 3:50 PM)
Average36 °F75%30.02 "Hg
* Reported Feb 19 1:20 AM — Mar 6 1:50 AM, Ankara, Weather by CustomWeather, © 2015

Note: Actual official high and low records may vary slightly from our data, if they occured in-between our weather recording intervals... More about our weather records

Advertising

Ankara weather history for previous 24 hours

 ConditionsComfort  
Time TempWeatherWind HumidityBarometerVisibility
1:50 AM
Fri, Mar 6
30 °FPassing clouds.5 mph75%30.21 "HgN/A
1:20 AM28 °FClear.1 mph80%30.21 "Hg10 mi
12:50 AM28 °FClear.1 mph80%30.21 "Hg10 mi
12:20 AM28 °FClear.2 mph80%30.21 "Hg10 mi
11:50 PM
Thu, Mar 5
30 °FClear.1 mph75%30.21 "Hg10 mi
11:20 PM28 °FClear.2 mph74%30.21 "Hg10 mi
10:20 PM32 °FClear.2 mph69%30.21 "Hg10 mi
9:50 PM32 °FClear.1 mph69%30.21 "Hg10 mi
9:20 PM34 °FPassing clouds.3 mph60%30.21 "HgN/A
8:50 PM32 °FClear.3 mph64%30.21 "Hg10 mi
8:20 PM34 °FClear.5 mph60%30.21 "Hg10 mi
7:50 PM34 °FClear.6 mph60%30.21 "Hg10 mi
7:20 PM36 °FClear.5 mph52%30.21 "Hg10 mi
6:50 PM41 °FPassing clouds.8 mph39%30.21 "HgN/A
6:20 PM43 °FPassing clouds.5 mph34%30.21 "HgN/A
5:50 PM43 °FPassing clouds.6 mph31%30.21 "HgN/A
5:20 PM45 °FPassing clouds.7 mph29%30.21 "HgN/A
4:50 PM46 °FPassing clouds.9 mph23%30.21 "HgN/A
4:20 PM46 °FPassing clouds.8 mph23%30.21 "HgN/A
3:50 PM46 °FPassing clouds.9 mph23%30.21 "HgN/A
3:20 PM48 °FPassing clouds.12 mph18%30.21 "HgN/A
2:50 PM46 °FPassing clouds.10 mph20%30.21 "HgN/A
2:20 PM48 °FPassing clouds.8 mph17%30.21 "HgN/A
1:50 PM48 °FPassing clouds.8 mph18%30.24 "HgN/A
1:20 PM46 °FScattered clouds.10 mph17%30.24 "HgN/A
12:50 PM45 °FScattered clouds.6 mph31%30.24 "HgN/A
12:20 PM43 °FScattered clouds.6 mph31%30.27 "HgN/A
11:50 AM43 °FScattered clouds.5 mph36%30.27 "HgN/A
11:20 AM39 °FScattered clouds.5 mph42%30.27 "HgN/A
10:50 AM37 °FPassing clouds.2 mph45%30.30 "HgN/A
10:20 AM37 °FSunny.2 mph41%30.30 "Hg10 mi
9:50 AM34 °FPassing clouds.5 mph56%30.30 "HgN/A
9:20 AM30 °FSunny.5 mph69%30.30 "Hg10 mi
8:50 AM28 °FSunny.2 mph69%30.30 "Hg10 mi
8:20 AM25 °FSunny.2 mph74%30.30 "Hg10 mi
7:50 AM21 °FPassing clouds.3 mph86%30.30 "HgN/A
7:20 AM19 °FSunny.3 mph93%30.30 "Hg10 mi
6:50 AM18 °FSunny.2 mph93%30.30 "Hg10 mi
6:20 AM18 °FSunny.3 mph86%30.27 "Hg10 mi
5:20 AM19 °FClear.2 mph86%30.27 "Hg10 mi
4:50 AM19 °FClear.3 mph86%30.27 "Hg10 mi
3:50 AM19 °FClear.2 mph86%30.24 "Hg10 mi
3:20 AM23 °FClear.2 mph80%30.24 "Hg10 mi
2:50 AM21 °FClear.2 mph86%30.24 "Hg10 mi
2:20 AM21 °FClear.1 mph86%30.24 "Hg10 mi
Weather by CustomWeather, © 2015

See weather overviewHow to use our weather pages